SCP
0 0 0 0 0 0 0 0 0 0 0 0 0 0 0 0 0 0 0 0 0 0 0 0 0 0 0 0 0 0 0 0 0 0 0 0 0 0 0 0 0 0 0 0
0 0 0 0 0 0 0 0 0 0 0 0 0 0 0 0 0 0 0 0 0 0 0 0 0 0 0 0 0 0 0 0 0 0 0 0 0 0 0 0 0 0 0 0
0 0 0 0 0 0 0 0 0 0 0 0 0 0 0 0 0 0 0 0 0 0 0 0 0 0 0 0 0 0 0 0 0 0 0 0 0 0 0 0 0 0 0 0
0 0 0 0 0 0 0 0 0 0 0 0 0 0 0 0 0 0 0 0 0 0 0 0 0 0 0 0 0 0 0 0 0 0 0 0 0 0 0 0 0 0 0 0
0 0 0 0 0 0 0 0 0 0 0 0 0 0 0 0 0 0 0 0 0 0 0 0 0 0 0 0 0 0 0 0 0 0 0 0 0 0 0 0 0 0 0 0
0 0 0 0 0 0 0 0 0 0 0 0 0 0 0 0 0 0 0 0 0 0 0 0 0 0 0 0 0 0 0 0 0 0 0 0 0 0 0 0 0 0 0 0
0 0 0 0 0 0 0 0 0 0 0 0 0 0 0 0 0 0 0 0 0 0 0 0 0 0 0 0 0 0 0 0 0 0 0 0 0 0 0 0 0 0 0 0
0 0 0 0 0 0 0 0 0 0 0 0 0 0 0 0 0 0 0 0 0 0 0 0 0 0 0 0 0 0 0 0 0 0 0 0 0 0 0 0 0 0 0 0
0 0 0 0 0 0 0 0 0 0 0 0 0 0 0 0 0 0 0 0 0 0 0 0 0 0 0 0 0 0 0 0 0 0 0 0 0 0 0 0 0 0 0 0
0 0 0 0 0 0 0 0 0 0 0 0 0 0 0 0 0 0 0 0 0 0 0 0 0 0 0 0 0 0 0 0 0 0 0 0 0 0 0 0 0 0 0 0
0 0 0 0 0 0 0 0 0 0 0 0 0 0 0 0 0 0 0 0 0 0 0 0 0 0 0 0 0 0 0 0 0 0 0 0 0 0 0 0 0 0 0 0
0 0 0 0 0 0 0 0 0 0 0 0 0 0 0 0 0 0 0 0 0 0 0 0 0 0 0 0 0 0 0 0 0 0 0 0 0 0 0 0 0 0 0 0
0 0 0 0 0 0 0 0 0 0 0 0 0 0 0 0 0 0 0 0 0 0 0 0 0 0 0 0 0 0 0 0 0 0 0 0 0 0 0 0 0 0 0 0
0 0 0 0 0 0 0 0 0 0 0 0 0 0 0 0 0 0 0 0 0 0 0 0 0 0 0 0 0 0 0 0 0 0 0 0 0 0 0 0 0 0 0 0
0 0 0 0 0 0 0 0 0 0 0 0 0 0 0 0 0 0 0 0 0 0 0 0 0 0 0 0 0 0 0 0 0 0 0 0 0 0 0 0 0 0 0 0
0 0 0 0 0 0 0 0 0 0 0 0 0 0 0 0 0 0 0 0 0 0 0 0 0 0 0 0 0 0 0 0 0 0 0 0 0 0 0 0 0 0 0 0
0 0 0 0 0 0 0 0 0 0 0 0 0 0 0 0 0 0 0 0 0 0 0 0 0 0 0 0 0 0 0 0 0 0 0 0 0 0 0 0 0 0 0 0
0 0 0 0 0 0 0 0 0 0 0 0 0 0 0 0 0 0 0 0 0 0 0 0 0 0 0 0 0 0 0 0 0 0 0 0 0 0 0 0 0 0 0 0
0 0 0 0 0 0 0 0 0 0 0 0 0 0 0 0 0 0 0 0 0 0 0 0 0 0 0 0 0 0 0 0 0 0 0 0 0 0 0 0 0 0 0 0
0 0 0 0 0 0 0 0 0 0 0 0 0 0 0 0 0 0 0 0 0 0 0 0 0 0 0 0 0 0 0 0 0 0 0 0 0 0 0 0 0 0 0 0
0 0 0 0 0 0 0 0 0 0 0 0 0 0 0 0 0 0 0 0 0 0 0 0 0 0 0 0 0 0 0 0 0 0 0 0 0 0 0 0 0 0 0 0
0 0 0 0 0 0 0 0 0 0 0 0 0 0 0 0 0 0 0 0 0 0 0 0 0 0 0 0 0 0 0 0 0 0 0 0 0 0 0 0 0 0 0 0
0 0 0 0 0 0 0 0 0 0 0 0 0 0 0 0 0 0 0 0 0 0 0 0 0 0 0 0 0 0 0 0 0 0 0 0 0 0 0 0 0 0 0 0
0 0 0 0 0 0 0 0 0 0 0 0 0 0 0 0 0 0 0 0 0 0 0 0 0 0 0 0 0 0 0 0 0 0 0 0 0 0 0 0 0 0 0 0
0 0 0 0 0 0 0 0 0 0 0 0 0 0 0 0 0 0 0 0 0 0 0 0 0 0 0 0 0 0 0 0 0 0 0 0 0 0 0 0 0 0 0 0
0 0 0 0 0 0 0 0 0 0 0 0 0 0 0 0 0 0 0 0 0 0 0 0 0 0 0 0 0 0 0 0 0 0 0 0 0 0 0 0 0 0 0 0
0 0 0 0 0 0 0 0 0 0 0 0 0 0 0 0 0 0 0 0 0 0 0 0 0 0 0 0 0 0 0 0 0 0 0 0 0 0 0 0 0 0 0 0
Wind_Speed
5 3 2 6 8 9 11 10 11 11 11 16 10 8 7 6 5 5 6 6 6 6 6 5 5 5 5 4 4 4 4 4 4 3 3 2 2 2 1 1 2 1 1 1
4 2 4 8 12 13 13 10 12 12 18 15 9 6 7 7 6 7 8 8 7 7 6 6 6 6 5 5 5 4 5 4 3 3 3 2 2 2 1 1 1 1 1 1
4 3 3 12 13 14 10 10 11 15 16 7 6 7 7 7 8 9 9 8 8 7 7 7 7 7 7 6 5 5 5 4 3 3 3 3 2 2 2 2 1 1 1 1
1 2 10 11 3 10 10 11 14 13 12 8 8 7 7 7 9 10 9 8 7 6 6 5 5 5 5 4 5 5 5 4 4 3 3 2 2 3 2 2 2 2 2 2
2 4 12 11 5 8 9 11 13 16 15 10 4 5 8 8 9 11 9 8 7 6 5 4 4 5 5 5 5 5 5 5 5 4 4 3 3 3 2 2 2 2 2 2
4 5 11 9 3 4 4 10 7 11 13 8 3 3 8 4 4 7 6 5 4 3 3 4 4 5 6 6 6 6 6 5 4 5 5 5 4 3 2 2 2 2 2 2
7 8 14 8 3 6 6 9 3 8 9 7 10 10 5 3 3 4 4 4 3 3 4 4 4 5 6 6 7 6 5 4 4 4 4 4 3 2 2 2 2 1 2 2
7 8 15 5 9 11 10 3 1 3 5 7 9 7 5 5 5 4 3 2 3 3 4 3 4 5 5 6 5 4 4 4 4 4 3 3 3 2 2 2 2 2 1 2
13 13 5 8 10 7 2 3 4 4 4 5 6 7 7 6 6 5 5 4 3 3 3 3 4 5 6 5 3 4 4 4 4 3 3 3 4 3 2 2 2 2 2 2
8 12 8 8 8 7 6 7 6 5 5 4 6 7 7 7 6 5 4 3 3 3 4 4 4 4 4 3 3 4 5 4 4 4 3 3 3 3 3 3 3 3 3 3
11 10 7 9 11 12 11 9 8 8 7 7 7 8 8 7 6 5 4 2 3 4 5 5 3 3 3 3 4 4 4 4 4 3 3 3 3 3 3 3 4 4 4 3
13 9 8 9 7 7 8 10 10 9 8 7 7 9 7 7 5 4 3 2 2 3 3 3 3 2 2 2 4 5 4 4 3 3 3 3 2 1 4 4 4 5 5 4
10 7 9 10 8 6 8 10 8 8 8 8 6 6 6 6 4 3 2 3 4 4 3 2 2 2 1 2 3 4 4 4 3 3 3 3 3 2 2 2 3 4 4 5
10 6 9 10 10 7 7 7 5 5 5 5 5 4 4 4 3 4 4 4 3 2 2 2 3 2 2 2 3 3 3 4 3 3 3 3 3 3 2 2 2 2 3 5
10 10 11 8 7 5 4 3 4 5 4 4 3 2 3 4 5 5 3 1 2 2 2 2 2 2 2 3 3 3 3 3 3 2 2 3 2 2 2 2 2 2 2 3
8 8 8 9 10 9 5 5 6 7 5 4 3 4 4 3 3 2 1 3 3 3 3 3 3 2 2 3 3 3 2 3 3 3 2 2 2 2 2 2 2 2 3 2
6 8 7 7 9 9 7 7 7 7 5 5 5 4 2 1 1 1 2 2 3 2 2 3 3 2 3 3 4 3 2 3 3 3 3 3 3 3 3 3 3 3 3 3
9 10 8 7 7 7 6 5 5 5 5 5 3 2 2 3 4 4 2 1 1 0 1 1 1 2 2 3 3 2 2 2 2 2 2 2 2 2 3 3 3 3 3 3
7 8 7 6 5 4 4 5 5 4 3 2 2 3 4 3 3 2 2 2 2 3 3 1 2 2 2 3 2 2 3 3 2 2 2 2 2 2 3 3 3 3 3 3
5 5 5 5 4 3 4 4 3 2 2 1 2 2 2 2 1 2 3 3 3 2 1 2 2 2 2 3 3 2 3 3 3 2 2 2 3 3 3 3 3 3 3 3
5 5 4 4 4 3 3 3 1 1 1 1 2 2 2 1 1 2 2 2 2 1 1 2 2 2 2 2 3 2 3 3 3 3 3 3 3 3 3 3 4 4 4 4
5 4 3 3 3 3 4 3 1 1 1 0 0 1 1 1 1 1 1 2 1 1 1 1 1 2 2 2 2 2 2 2 2 2 3 3 3 4 4 4 4 4 4 4
4 3 3 2 2 2 3 3 2 1 1 1 1 1 1 1 1 1 2 2 1 1 1 1 1 2 2 2 2 2 2 3 3 3 3 3 3 4 4 4 4 4 4 4
3 3 3 2 2 2 3 3 3 2 1 1 1 1 0 0 1 1 1 1 1 1 1 1 2 2 2 1 2 2 2 3 3 2 2 3 3 3 3 3 4 4 4 4
3 2 2 2 2 2 2 3 3 3 2 2 2 2 2 1 1 2 1 1 1 0 1 1 1 2 2 2 2 2 2 3 3 3 3 3 3 3 3 4 4 4 4 4
3 2 2 2 2 1 2 2 2 2 2 2 2 2 2 2 1 1 1 1 0 1 1 0 1 1 2 2 2 2 2 2 2 3 3 3 3 4 4 4 5 4 4 4
3 2 2 2 2 2 2 2 2 2 2 1 2 2 2 2 1 1 1 1 1 1 1 1 1 1 1 1 2 2 2 2 2 2 3 3 3 4 4 5 4 4 4 4
Wind_Direction
255 265 229 230 224 202 207 211 219 243 248 263 264 264 269 267 265 258 255 247 235 228 225 219 214 210 207 205 195 181 180 191 207 202 191 186 190 189 184 185 197 196 183 208
284 264 256 261 242 222 228 231 239 260 268 263 266 261 261 258 251 253 255 251 243 233 223 217 212 208 202 200 196 183 189 201 200 189 185 185 190 183 177 189 191 176 187 200
265 295 321 267 230 204 209 213 203 229 245 260 260 254 248 246 240 243 248 248 239 230 224 219 211 202 202 200 186 181 192 197 192 188 191 192 183 176 189 200 185 194 203 203
262 16 246 247 191 186 206 231 218 236 251 249 249 266 260 241 236 245 245 242 239 231 226 220 204 195 190 183 180 185 191 193 189 186 194 188 183 193 199 194 194 203 207 216
167 245 274 284 225 175 194 256 221 228 248 257 280 317 285 245 225 234 237 234 231 225 217 203 192 184 174 178 180 187 198 200 196 189 191 191 200 204 199 194 200 201 194 203
173 213 246 253 198 172 147 274 233 208 233 238 149 256 270 269 237 242 238 230 224 210 192 192 194 172 173 185 186 200 205 204 195 188 190 198 204 201 196 192 201 196 213 215
201 230 258 251 160 138 182 248 243 201 218 196 198 224 260 284 264 252 240 223 200 187 196 202 184 170 184 191 204 207 194 184 184 187 191 193 189 186 183 184 182 200 227 249
178 216 251 194 149 189 220 271 274 228 221 214 230 254 275 278 270 263 257 239 206 199 213 201 177 176 192 209 210 181 171 176 184 185 182 175 176 181 175 176 185 211 229 263
197 217 236 175 197 218 231 255 255 249 248 233 246 258 265 270 266 262 251 241 220 206 211 212 192 185 200 213 178 167 168 181 184 178 178 173 177 181 176 181 195 214 218 246
244 255 251 234 243 255 245 247 258 256 257 235 248 261 264 267 265 259 255 241 215 191 207 223 213 204 206 184 166 167 179 185 179 178 180 178 181 182 187 195 202 214 223 238
248 264 285 260 237 246 251 253 263 265 253 245 250 260 258 261 259 253 247 238 205 203 212 220 209 210 194 171 162 173 182 182 178 181 181 185 191 201 204 211 206 211 221 218
233 226 218 246 242 231 236 247 248 252 262 252 237 252 257 258 259 254 246 231 219 220 219 217 202 202 177 161 164 169 179 184 182 180 180 184 191 233 235 229 233 236 241 239
237 236 232 257 263 239 236 247 247 239 244 256 252 244 248 255 256 247 237 221 219 220 218 200 178 180 172 163 161 167 175 178 178 178 178 182 187 199 239 271 245 250 262 267
244 251 264 260 261 260 250 258 259 254 254 255 258 255 246 252 258 242 237 230 214 187 175 171 172 200 190 172 167 172 170 172 174 179 179 183 191 203 210 220 255 281 286 280
244 236 246 268 280 280 278 280 270 263 267 273 267 255 239 238 242 246 247 191 139 151 176 174 186 215 171 171 172 175 173 175 174 172 178 182 183 190 204 217 235 268 303 298
263 254 254 261 265 271 272 265 259 263 262 262 257 252 244 239 246 252 212 157 161 190 195 188 210 211 165 170 171 174 185 178 166 169 173 177 181 191 204 215 229 242 254 265
260 261 258 263 264 265 260 254 254 261 263 255 253 254 239 210 226 238 231 199 188 197 189 198 215 184 171 176 175 179 179 176 172 171 181 187 193 204 209 213 224 238 248 251
246 255 255 255 262 262 264 262 260 261 258 263 265 227 201 199 217 230 227 165 142 173 229 223 190 160 172 180 175 167 168 173 183 195 192 195 204 208 208 216 226 238 255 264
263 266 270 269 270 267 268 265 262 261 262 241 218 222 223 222 220 206 156 151 182 231 258 236 186 163 183 187 162 164 170 174 180 192 195 196 202 212 218 223 229 233 237 239
296 297 296 295 297 279 272 278 274 267 255 210 201 216 231 238 208 171 160 191 226 250 220 192 182 183 191 186 167 176 179 182 186 191 195 205 213 220 225 229 234 238 238 239
313 316 315 313 321 324 308 298 287 274 277 203 194 213 226 242 187 161 172 237 271 281 186 181 188 197 196 189 179 178 178 185 192 197 203 213 220 225 229 232 235 238 240 244
320 322 324 328 334 337 338 336 341 335 349 315 253 185 164 192 192 181 216 243 252 203 182 203 211 201 185 173 178 177 184 193 201 203 208 215 221 228 232 235 238 242 243 245
321 328 339 342 334 333 346 354 358 4 359 321 281 233 216 226 218 206 261 273 247 221 210 222 224 175 155 157 173 184 195 203 210 214 220 224 226 229 234 237 240 241 244 247
331 339 344 346 5 16 355 346 354 6 20 14 355 331 285 281 308 308 287 260 234 222 243 233 188 159 147 164 183 199 207 213 219 222 225 231 235 237 239 241 243 244 245 248
332 344 3 7 6 347 336 346 4 15 20 15 11 7 358 336 272 289 305 278 261 260 268 239 187 165 169 190 199 210 217 219 222 224 225 228 233 238 242 244 244 245 247 250
338 347 351 340 334 338 338 341 345 347 357 354 348 351 354 358 359 353 359 342 314 288 293 276 206 195 206 210 215 219 221 222 223 226 232 236 238 240 245 249 251 250 249 250
355 2 5 359 1 2 354 345 339 334 337 334 325 330 343 353 9 14 13 360 343 324 322 312 268 244 240 233 231 233 234 231 228 230 233 237 240 243 247 250 255 258 257 255